Regional Weather Roundup
Issued by NWS Charleston, WV

Home | Current Version | Previous Version | Text Only | Print | Product List | Glossary Off
Versions: 1 2 3 4 5 6 7 8 9 10 11 12 13 14 15 16 17 18 19 20 21 22 23 24 25 26 27 28 29 30 31 32 33 34 35 36 37 38 39 40 41 42 43 44 45 46 47 48 49 50

000
ASUS41 KRLX 221110
RWRRLX
West Virginia Regional Weather Roundup
National Weather Service Charleston WV
600 AM EST MON JAN 22 2018

Note: "fair" indicates few or no clouds below 12,000 feet with no
significant weather and/or obstructions to visibility.

WVZ003-221200-
Northern Panhandle of West Virginia

CITY           SKY/WX    TMP DP  RH WIND       PRES   REMARKS
WHEELING       CLOUDY    50  45  83 S7        30.03R
$$

WVZ009-221200-
Northwest West Virginia

CITY           SKY/WX    TMP DP  RH WIND       PRES   REMARKS
PARKERSBURG    CLOUDY    46  44  93 CALM      30.05R FOG
$$

WVZ006-221200-
Western West Virginia

CITY           SKY/WX    TMP DP  RH WIND       PRES   REMARKS
HUNTINGTON     CLOUDY    54  43  66 S3        30.01S
$$

WVZ015-221200-
West Central West Virginia

CITY           SKY/WX    TMP DP  RH WIND       PRES   REMARKS
CHARLESTON     CLOUDY    50  44  80 CALM      30.02F
$$

WVZ022-031-221200-
North Central West Virginia

CITY           SKY/WX    TMP DP  RH WIND       PRES   REMARKS
CLARKSBURG     CLOUDY    50  46  86 CALM      30.05F
MORGANTOWN     CLOUDY    53  46  77 S3        30.06S
$$

WVZ025-035-042-045-221200-
Southern West Virginia

CITY           SKY/WX    TMP DP  RH WIND       PRES   REMARKS
BECKLEY        CLOUDY    50  40  68 SE9       30.10R
LOGAN          CLOUDY    55  43  62 VRB7G18   30.05S
BLUEFIELD        N/A     51  37  58 S5        30.12R
LEWISBURG      CLOUDY    38  37  99 N3        30.13S FOG
$$

WVZ047-221200-
Northern Mountains of West Virginia

CITY           SKY/WX    TMP DP  RH WIND       PRES   REMARKS
ELKINS         CLOUDY    43  41  93 CALM      30.09R
$$

WVZ052-221200-
Eastern Panhandle of West Virginia

CITY           SKY/WX    TMP DP  RH WIND       PRES   REMARKS
MARTINSBURG    CLOUDY    43  39  86 CALM      30.08F
PETERSBURG     CLOUDY    41  40  93 CALM      30.10R
$$



USA.gov is the U.S. government's official web portal to all federal, state and local government web resources and services.